星链-31639 (STARLINK-31639 )

导读

STARLINK-31639是美国SpaceX公司星链星座的一颗低轨通信卫星,于2024年3月19日发射入轨。它是星链全球互联网星座计划的组成部分,运行于近地轨道,旨在为全球尤其是地面网络未覆盖区域提供高速低延迟宽带服务。 作为星链星座持续扩展的一员,该卫星将助力提升星座网络容量与覆盖能力,同时星链项目在服务民用通信、推动弥合数字鸿沟外,也引发了关于太空轨道资源占用、天文观测干扰等领域的讨论。

基本信息
目录编号:
59261
目录名称:
STARLINK-31639
国际标识:
2024-050H
轨道中心:
EARTH
卫星名称:
星链-31639
卫星全名:
星链-31639 (STARLINK-31639 )
卫星状态:
在轨 (已飞行821 天)
发射日期:
2024-03-19 UTC
国别 :
美国 (US)
星等 :
--
轨道信息
数据来源 国际轨道数据 AOE轨道数据
星历时间 2026-06-17T09:04:44+0800
1天前
查看轨道信息
2026-06-15T01:00:00+0800
3天前
查看轨道信息
半长轴 6848.929km 6848.873km
偏心率 0.0001835 0.0001212
轨道倾角 53.161° 53.163°
近地点辐角 124.806° 110.106°
升交点赤经 79.270° 90.145°
平近点角 235.311° 318.405°
近地点 469.535km 469.905km
远地点 472.049km 471.567km
周期 94.014分钟 94.013分钟
每日圈数 15.316828 15.317014
详细信息
固有亮度:
5
最大亮度:
0.3
卫星平台:
Starlink v2.0 mini
覆盖范围:
全球
运营商:
太空探索技术公司
运营商所在国:
美国
制造商(研发单位):
太空探索技术公司
制造商所在国:
美国
使用方式:
暂无
卫星简介
星链(Starlink)计划是由太空探索技术公司(SpaceX)提出的一个巨型低轨卫星互联网星座项目,计划在2019年至2024年间在太空搭建由约1.2万颗卫星组成的“星链”网络,其中1584颗将部署在地球上空550千米处的近地轨道,并从2020年开始工作。该卫星仍在工作。
2D轨道图
3D轨道图
轨道高度分析图
轨道倾角分析图
轨道综合分析图
查看轨道综合分析图